Ireland West Airport Knock, Ireland

6:39 AM GMT on November 18, 2017 (GMT +0000)
Connaught

Weather History for EIKN - August, 2014

Change the Weather History Date:

Sunday, August 10, 2014

  Actual Average Record
Temperature  
Mean Temperature 54 °F -  
Max Temperature 59 °F - - ()
Min Temperature 50 °F - - ()
Degree Days  
Heating Degree Days 10    
Growing Degree Days 4 (Base 50)    
Moisture  
Dew Point 50 °F    
Average Humidity 84    
Maximum Humidity 100    
Minimum Humidity 62    
Precipitation  
Precipitation 0.20 in - - ()
Sea Level Pressure  
Sea Level Pressure 29.50 in    
Wind  
Wind Speed 7 mph ()    
Max Wind Speed 16 mph    
Max Gust Speed 29 mph    
Visibility 6.8 miles    
Events Rain    
T = Trace of Precipitation, MM = Missing Value Source: Averaged Metar Reports

Daily Weather History Graph

Daily Weather History Graph

Search for Another Location

Airport or City:

Trip Planner

Search our weather history database for the weather conditions in past years. The results will help you decide how hot, cold, wet, or windy it might be!

Date:

Astronomy

Aug. 10, 2014 Rise Set
Actual Time 6:04 AM IST 9:15 PM IST
Civil Twilight 5:22 AM IST 9:57 PM IST
Nautical Twilight 4:26 AM IST 10:52 PM IST
Astronomical Twilight 3:08 AM IST 12:08 AM IST
Moon 8:40 PM IST (8/10) 5:46 AM IST (8/10)
Length of Visible Light 16h 34m
Length of Day
15h 11m
Full, 100% of the Moon is Illuminated
Aug 10
Full
Aug 10
Full
Aug 17
Last Quarter
Aug 25
New
Sep 2
First Quarter

Hourly Weather History & Observations

Time (IST) Temp. Dew Point Humidity Pressure Visibility Wind Dir Wind Speed Gust Speed Precip Events Conditions
12:00 AM 55 °F 52 °F 84% 29.56 in - Calm Calm - -  
1:00 AM 54 °F 52 °F 89% 29.55 in - NW 4.5 mph - -  
2:00 AM 54 °F 52 °F 89% 29.53 in - NNW 4.5 mph - -  
3:00 AM 52 °F 51 °F 95% 29.52 in - North 4.5 mph - -  
4:00 AM 52 °F 50 °F 90% 29.50 in - NNW 4.5 mph - -  
5:00 AM 51 °F 50 °F 93% 29.49 in - North 4.5 mph - -  
7:00 AM 51 °F 49 °F 91% 29.49 in 28 mi NW 6.7 mph - -   Scattered Clouds
7:00 AM 50.0 °F 50.0 °F 100% 29.47 in 6.2 mi NW 5.8 mph - N/A   Scattered Clouds
7:30 AM 50.0 °F 50.0 °F 100% 29.47 in 6.2 mi NW 5.8 mph - N/A   Scattered Clouds
8:00 AM 51 °F 49 °F 88% 29.48 in 28 mi NW 6.7 mph - -   Scattered Clouds
8:00 AM 50.0 °F 48.2 °F 94% 29.47 in 6.2 mi NW 5.8 mph - N/A   Scattered Clouds
8:30 AM 51.8 °F 50.0 °F 94% 29.47 in 6.2 mi WNW 6.9 mph - N/A   Scattered Clouds
9:00 AM 52 °F 50 °F 89% 29.48 in 25 mi WNW 6.7 mph - -   Scattered Clouds
9:00 AM 51.8 °F 50.0 °F 94% 29.47 in 6.2 mi WNW 6.9 mph - N/A   Scattered Clouds
9:30 AM 53.6 °F 51.8 °F 94% 29.47 in 6.2 mi NW 9.2 mph - N/A   Scattered Clouds
10:00 AM 55 °F 52 °F 85% 29.47 in 25 mi WNW 6.7 mph - -   Scattered Clouds
10:00 AM 55.4 °F 51.8 °F 88% 29.44 in 6.2 mi WNW 6.9 mph - N/A   Scattered Clouds
10:30 AM 57.2 °F 51.8 °F 82% 29.44 in 6.2 mi WNW 6.9 mph - N/A   Scattered Clouds
11:00 AM 58 °F 51 °F 70% 29.46 in 22 mi WNW 8.9 mph - -   Partly Cloudy
11:00 AM 59.0 °F 51.8 °F 77% 29.44 in 6.2 mi WNW 9.2 mph - N/A   Scattered Clouds
11:30 AM 59.0 °F 48.2 °F 67% 29.44 in 6.2 mi WNW 8.1 mph - N/A   Scattered Clouds
12:00 PM 58 °F 51 °F 71% 29.47 in 12 mi NW 8.9 mph - - Rain Light Rain Showers
12:00 PM 57.2 °F 51.8 °F 82% 29.44 in 6.2 mi NW 8.1 mph - N/A   Scattered Clouds
12:30 PM 55.4 °F 50.0 °F 82% 29.47 in 6.2 mi WNW 11.5 mph - N/A Rain Light Rain Showers
1:00 PM 54 °F 51 °F 87% 29.49 in 9 mi WNW 8.9 mph - - Rain Light Rain Showers
1:00 PM 53.6 °F 51.8 °F 94% 29.47 in 6.2 mi WNW 9.2 mph - N/A   Mostly Cloudy
1:30 PM 55.4 °F 51.8 °F 88% 29.47 in 5.0 mi WNW 16.1 mph 28.8 mph N/A Rain Light Rain Showers
2:00 PM 52 °F 50 °F 89% 29.50 in 11 mi WNW 13.4 mph - - Rain Light Rain Showers
2:00 PM 51.8 °F 50.0 °F 94% 29.47 in 6.2 mi WNW 13.8 mph - N/A Rain Light Rain Showers
2:30 PM 53.6 °F 51.8 °F 94% 29.50 in 6.2 mi WNW 12.7 mph - N/A   Mostly Cloudy
3:00 PM 55 °F 53 °F 90% 29.52 in 4 mi NW 11.2 mph - - Rain Light Rain Showers
3:00 PM 55.4 °F 53.6 °F 94% 29.50 in 4.3 mi NW 10.4 mph 24.2 mph N/A Rain Light Rain Showers
3:30 PM 51.8 °F 50.0 °F 94% 29.50 in 6.2 mi WNW 11.5 mph - N/A Rain Light Rain Showers
4:00 PM 56 °F 52 °F 80% 29.52 in 31 mi WNW 11.2 mph - - Rain Light Rain Showers
4:00 PM 55.4 °F 51.8 °F 88% 29.50 in 6.2 mi WNW 11.5 mph - N/A   Mostly Cloudy
4:30 PM 57.2 °F 51.8 °F 82% 29.50 in 6.2 mi NW 13.8 mph - N/A   Mostly Cloudy
5:00 PM 57 °F 49 °F 66% 29.54 in 17 mi WNW 15.7 mph - - Rain Light Rain Showers
5:00 PM 57.2 °F 48.2 °F 72% 29.53 in 6.2 mi WNW 16.1 mph - N/A Rain Light Rain Showers
5:30 PM 55.4 °F 50.0 °F 82% 29.53 in 6.2 mi NW 16.1 mph 27.6 mph N/A   Scattered Clouds
6:00 PM 58 °F 50 °F 66% 29.55 in 31 mi NW 11.2 mph - - Rain Light Rain Showers
6:00 PM 57.2 °F 50.0 °F 77% 29.53 in 6.2 mi NW 10.4 mph - N/A   Scattered Clouds
6:30 PM 57.2 °F 48.2 °F 72% 29.56 in 6.2 mi WNW 13.8 mph - N/A   Mostly Cloudy
7:00 PM 58 °F 48 °F 62% 29.56 in 31 mi West 15.7 mph - -   Partly Cloudy
7:00 PM 57.2 °F 48.2 °F 72% 29.53 in 6.2 mi West 15.0 mph - N/A   Scattered Clouds
8:00 PM 56 °F 48 °F 66% 29.57 in - West 13.4 mph - -  
10:00 PM 53 °F 49 °F 80% 29.60 in - West 13.4 mph - -  
11:00 PM 51 °F 48 °F 85% 29.60 in - WSW 11.2 mph - -